Regional Weather Roundup
Issued by NWS

Home | Current Version | Previous Version | Graphics & Text | Print | Product List | Glossary Off
Versions: 1 2 3 4 5 6 7 8 9 10 11 12 13 14 15 16 17 18 19 20 21 22 23 24 25 26 27 28 29 30 31 32 33 34 35 36 37 38 39 40 41 42 43 44 45 46 47 48 49 50

000
ASUS43 KDTX 302110
RWRMI
MICHIGAN HOURLY REGIONAL WEATHER ROUNDUP
NATIONAL WEATHER SERVICE DETROIT/PONTIAC MI
400 PM EST FRI JAN 30 2015

NOTE: "FAIR" INDICATES FEW OR NO CLOUDS BELOW 12,000 FEET WITH NO
SIGNIFICANT WEATHER AND/OR OBSTRUCTION TO VISIBILITY.

MIZ047>049-052>055-059>063-066>070-074>076-081>083-302200-
SOUTHEAST LOWER MICHIGAN

CITY           SKY/WX    TMP DP  RH WIND       PRES   REMARKS
ADRIAN         SUNNY     22   6  50 N8        30.44R WCI  12
ALMA           CLOUDY    21   8  56 W5        30.43S WCI  14
ANN ARBOR      SUNNY     21   5  50 N10       30.43R WCI  10
BAD AXE        SUNNY     13   1  57 NW7       30.42S WCI   3
CARO           SUNNY     16   2  55 NW6       30.42F WCI   7
DETROIT CITY   SUNNY     21   1  41 N13       30.44R WCI   9
DETROIT        MOSUNNY   22   4  46 NW9       30.44R WCI  12
FLINT          SUNNY     20   2  45 NW8       30.43R WCI  10
GROSSE ILE     SUNNY     19   1  45 NW12G18   30.43R WCI   7
HILLSDALE      MOSUNNY   22   9  56 CALM      30.39F
HOWELL         SUNNY     19   4  53 NW8       30.41S WCI   8

CITY           SKY/WX    TMP DP  RH WIND       PRES   REMARKS
JACKSON        MOSUNNY   20   7  57 NW6       30.41F WCI  12
LAMBERTVILLE   SUNNY     25   7  46 NW8       30.45R WCI  16
LANSING        PTSUNNY   20   8  60 W9        30.43F WCI   9
LAPEER         FAIR      15   0  51 NW7       30.42S WCI   5
MASON          PTSUNNY   21   7  55 NW9       30.42S WCI  10
MONROE         SUNNY     21   7  53 NW7       30.43R WCI  13
MT. CLEMENS    MOSUNNY   16   1  51 N9        30.42S WCI   4
PONTIAC        MOSUNNY   17   2  51 W15       30.40R WCI   2
PORT HOPE        N/A     14   2  58 NW9       30.41S WCI   2
PORT HURON     SUNNY     14   1  57 NW9G16    30.44R WCI   2
TRI CITIES     SUNNY     22   3  44 N6        30.42F WCI  14
TROY           SUNNY     21  -1  39 NW7       30.45R WCI  12
SAGINAW HB     SUNNY     19   5  53 NW7       30.42F WCI  10
$$
MIZ043>046-050>051-056>058-064>065-071>073-077>080-302200-
SOUTHWEST LOWER MICHIGAN

CITY           SKY/WX    TMP DP  RH WIND       PRES   REMARKS
BATTLE CREEK   SUNNY     23   9  55 NW8       30.42F WCI  14
BENTON HARBOR  CLOUDY    24  17  74 VRB5      30.46S WCI  18
BIG RAPIDS     MOSUNNY   23   8  54 NW7       30.38F WCI  14
COLDWATER      SUNNY     23   8  52 NW3       30.42S
FREMONT        FAIR      22   7  52 NW7       30.42F WCI  13
HOLLAND        CLOUDY    24  13  62 NW9       30.45S WCI  14
GRAND RAPIDS   PTSUNNY   23   9  55 W8        30.43S WCI  14
IONIA          CLOUDY    23  10  56 NW5       30.41S WCI  17
KALAMAZOO      SUNNY     24  10  55 N9        30.43S WCI  14
LUDINGTON      PTSUNNY   21   9  60 W5        30.45S WCI  14
MARSHALL       MOSUNNY   23   8  53 NW6       30.41S WCI  15
MOUNT PLEASANT CLOUDY    20   7  55 NW3       30.41F
MUSKEGON       PTSUNNY   22  11  62 W9        30.45S WCI  12
SOUTH HAVEN    CLOUDY    26  17  69 N8        30.45F WCI  17
$$
MIZ016>042-302200-
NORTHERN LOWER MICHIGAN

CITY           SKY/WX    TMP DP  RH WIND       PRES   REMARKS
ALPENA         SUNNY     14   0  53 NW10      30.40F WCI   1
BEAVER ISLAND  CLOUDY    17  10  76 CALM      30.40F
CADILLAC       CLOUDY    18   8  64 W8        30.35S WCI   8
CHARLEVOIX     FLURRIES  17   9  71 W5        30.44F WCI  10
FRANKFORT      CLOUDY    19  11  72 NW3       30.43F
GAYLORD        PTSUNNY   13   2  61 W8        30.35S WCI   2
GRAYLING       CLOUDY    16   3  57 W5        30.38S WCI   9
HARBOR SPRINGS CLOUDY    13   4  67 CALM      30.41F
HOUGHTON LAKE  CLOUDY    17   4  56 W8        30.37F WCI   7
MANISTEE       CLOUDY    19   7  58 NW6       30.44S WCI  11
OSCODA         SUNNY     15  -1  49 NW9       30.41R WCI   3
PELLSTON       CLOUDY    16   4  59 NW14      30.40F WCI   2
ROGERS CITY    SUNNY     13   7  74 N6        30.41S WCI   4
TRAVERSE CITY  FLURRIES  19  10  68 W7        30.41F WCI  10
$$
MIZ007>008-015-302200-
EASTERN UPPER MICHIGAN

CITY           SKY/WX    TMP DP  RH WIND       PRES   REMARKS
KINROSS        CLOUDY    12   3  67 W3        30.37F
MACKINAC ISLAN CLOUDY    11   3  68 W5        30.39F WCI   3
NEWBERRY       CLOUDY    10   5  83 S7        30.36F WCI  -2
S. S. MARIE    CLOUDY     9  -1  64 W7        30.38S WCI  -2
MUNISING         N/A     19   3  49 CALM      30.39F
$$
MIZ004>006-011>014-085-302200-
CENTRAL UPPER MICHIGAN

CITY           SKY/WX    TMP DP  RH WIND       PRES   REMARKS
MANISTIQUE     CLOUDY    16   6  65 W7        30.39F WCI   6
ESCANABA       SUNNY     18   1  49 SW6       30.41F WCI   9
MENOMINEE      CLOUDY    16   5  62 S10       30.41F WCI   3
SAWYER-GWINN   CLOUDY    16   1  53 W9        30.34S WCI   4
$$
MIZ001>003-009>011-084-302200-
WESTERN UPPER MICHIGAN

CITY           SKY/WX    TMP DP  RH WIND       PRES   REMARKS
IRON MOUNTAIN  CLOUDY    18   3  52 SW5       30.33F WCI  11
HOUGHTON       LGT SNOW  14   8  77 SW5       30.32F WCI   6
COPPER HARBOR    N/A     15   5  64 SW3       30.36F
IRONWOOD       CLOUDY    18   1  49 SW9       30.29F WCI   6
$$

ABBREVIATIONS USED IN REMARKS
   TC - TEMPERATURE IN CELSIUS
  WCI - WIND CHILL INDEX
   HX - HEAT INDEX
  VSB - VISIBILITY



USA.gov is the U.S. government's official web portal to all federal, state and local government web resources and services.